Regional Weather Roundup
Issued by NWS

Home | Current Version | Previous Version | Text Only | Print | Product List | Glossary On
Versions: 1 2 3 4 5 6 7 8 9 10 11 12 13 14 15 16 17 18 19 20 21 22 23 24 25 26 27 28 29 30 31 32 33 34 35 36 37 38 39 40 41 42 43 44 45 46 47 48 49 50
000
ASUS44 KFWD 201015
RWRTX
NORTH TEXAS HOURLY WEATHER ROUNDUP
NATIONAL WEATHER SERVICE FORT WORTH TX
400 AM CST MON FEB 20 2017

NOTE: "FAIR" INDICATES FEW OR NO CLOUDS BELOW 12,000 FEET WITH NO
SIGNIFICANT WEATHER AND/OR OBSTRUCTIONS TO VISIBILITY.

TXZ118-119-201100-
DALLAS/FORT WORTH METROPLEX

CITY           SKY/WX    TMP DP  RH WIND       PRES   REMARKS
DFW AIRPORT    RAIN      59  57  93 E8        29.90F
DALLAS LOVE    LGT RAIN  58  56  93 NE13      29.85F
FTW MEACHAM    CLOUDY    58  55  90 NE15      29.81F
DAL-EXECUTIVE  RAIN      58  57  97 NE10      29.89F
FTW-ALLIANCE   LGT RAIN  57  55  93 NE16      29.83F
FTW-NAS-JRB    CLOUDY    58  57  97 E9        29.83F
FTW-SPINKS     CLOUDY    57  55  95 E9        29.86F
ARLINGTON      LGT RAIN  58  56  93 NE9       29.87F
GRAND PRAIRIE  CLOUDY    57  57 100 NE7       29.92F
ADDISON        LGT RAIN  57  55  92 CALM      29.95R
MESQUITE       CLOUDY    57  56  94 NW7       29.95F
LANCASTER      RAIN      57  55  95 N7        29.91F
$$

TXZ091>094-102>105-117-120-121-131>134-201100-
NORTH CENTRAL TEXAS

CITY           SKY/WX    TMP DP  RH WIND       PRES   REMARKS
SHRMAN/DENISON LGT RAIN  56  56  97 W5        29.94F
GAINESVILLE    LGT RAIN  56  54  92 CALM      29.92F
BOWIE          LGT RAIN  56  56 100 NE9       29.80F
BRIDGEPORT     LGT RAIN  55  55 100 E7        29.82F
DECATUR        CLOUDY    55  54  97 NE12      29.81F
MCKINNEY       RAIN      57  57 100 NW8       29.93F
BONHAM         RAIN      57  55  94 W10       29.95R
GREENVILLE     RAIN      59  55  88 W7        29.94F
ROCKWALL       RAIN      57  57  99 W3        29.96F
TERRELL        HVY RAIN  58  55  90 NW8       29.96F FOG
WAXAHACHIE     LGT RAIN  56  56 100 NE9       29.88F
CLEBURNE       CLOUDY    55  55 100 NE10G16   29.86S
GRANBURY       CLOUDY    58  55  91 SE6       29.88R
$$

TXZ083>090-098>101-113>116-127>130-139>142-154-155-201100-
WESTERN NORTH TEXAS

CITY           SKY/WX    TMP DP  RH WIND       PRES   REMARKS
WICHITA FALLS  MOCLDY    55  53  93 SW9       29.81F
WF-KICKAPOO    CLOUDY    56  54  92 S3        29.81F
VERNON         MOCLDY    55  51  85 S5        29.81F
ABILENE        MOCLDY    52  52 100 S9        29.88R
ABILENE-DYESS  CLOUDY    53  52  95 SW10      29.86R
GRAHAM         CLOUDY    54  54 100 S5        29.84R
BRECKENRIDGE   CLOUDY    56  55  97 SW6       29.85R
CISCO          CLOUDY    54  54 100 S10       29.87R
RANGER         CLOUDY    52  52 100 CALM      29.87R
MINERAL WELLS  CLOUDY    55  53  93 SW7       29.84S
STEPHENVILLE   PTCLDY    55  52  92 CALM      29.88R
COMANCHE       CLOUDY    54  54 100 CALM      29.88R
BROWNWOOD      CLOUDY    54  54 100 N3        29.88F
COLEMAN        MOCLDY    54  53  97 SW6       29.88F
$$

TXZ143>147-156>162-174-175-201100-
CENTRAL TEXAS

CITY           SKY/WX    TMP DP  RH WIND       PRES   REMARKS
WACO           CLOUDY    58  56  93 MISG      29.87F
WACO-MCGREGOR  CLOUDY    57  56  96 E8        29.87F THUNDER
HILLSBORO      DRIZZLE   58  56  94 NE13      29.85F
CORSICANA      RAIN      58  57  97 N13       29.90F
MEXIA          LGT RAIN  56  55  97 N8        29.89F
CAMERON        RAIN      58  57  98 CALM      29.90
TEMPLE         LGT RAIN  57  55  94 E6        29.90R
KILLEEN        LGT RAIN  57  56  97 S6        29.93R
KILLEEN-SKYLRK LGT RAIN  57  56  96 SE5       29.92R
FORT HOOD      LGT RAIN  55  55 100 S5        29.90R
GATESVILLE     LGT RAIN  57  55  94 SE6       29.94R
HAMILTON       CLOUDY    55  55 100 NW3       29.88R
LAMPASAS       LGT RAIN  58  57  96 SE5       29.91R
$$

TXZ095>097-106>112-122>126-135>138-148>153-164>167-201100-
EAST TEXAS

CITY           SKY/WX    TMP DP  RH WIND       PRES   REMARKS
PARIS          CLOUDY    57  54  88 W24G35    29.93R
SULPHUR SPRNGS TSTM      59  57  94 W20G28    29.96R
MOUNT PLEASANT CLOUDY    68  61  77 W36G45    29.94R
GILMER         CLOUDY    69  65  86 W12G18    29.93R THUNDER
MINEOLA        TSTM      59  55  88 W13G20    29.97R
TYLER          RAIN      59  57  93 NW12G22   29.95F
LONGVIEW       CLOUDY    70  66  87 S10       29.89F
MARSHALL       CLOUDY    67  64  88 S7        29.92F
ATHENS         TSTM      55  55 100 NW8       29.95S
JACKSONVILLE     N/A     57  56  99 NW21G36   29.97R
HENDERSON      CLOUDY    69  66  90 S12G17    29.90F THUNDER
CENTER         CLOUDY    72  70  94 SE7       29.94F
NACOGDOCHES    CLOUDY    70  64  83 SE10      29.89F
LUFKIN         MOCLDY    69  65  86 S14       29.91F
$$

SUPPLEMENTAL OBSERVATIONS (CENTRAL)

CITY           SKY/WX    TMP DP  RH WIND       PRES   REMARKS
DENISON DAM      N/A     55  52  88 W8          N/A
PAT MAYSE LAKE   N/A     57  55  94 SW21        N/A
GREENVILLE       N/A     57  54  88 W8G24       N/A
LAKE LIMESTONE   N/A     57  54  88 NE9G17      N/A
MCGREGOR         N/A     57  55  94 E7G17       N/A
TEMPLE           N/A     57  55  94 E8G21       N/A
$$

SUPPLEMENTAL OBSERVATIONS (WEST)

CITY           SKY/WX    TMP DP  RH WIND       PRES   REMARKS
MILLERS CREEK    N/A     54  52  94 S7          N/A
POSSUM KINGDOM   N/A     54  52  94 SE5         N/A
GRANBURY         N/A     57  54  88 SE6         N/A
COMANCHE         N/A     54  52  94 W6          N/A
HAMBY            N/A     54  50  87 S8          N/A
IVIE RESERVOIR   N/A     54  52  94 NW3         N/A
COLORADO BEND    N/A     55  52  88 SW2G13      N/A
$$

SUPPLEMENTAL OBSERVATIONS (EAST)

CITY           SKY/WX    TMP DP  RH WIND       PRES   REMARKS
CLARKSVILLE      N/A     59  55  88 NW12G26     N/A
TEXARKANA        N/A     66  61  82 SE5         N/A
LINDEN           N/A     66  63  88 SE5         N/A
CADDO LAKE       N/A    N/A N/A N/A SE3         N/A
GILMER           N/A     63  57  82 W16G33      N/A
HENDERSON        N/A     63  59  88 SW23G44     N/A
LUFKIN           N/A     70  64  83 MISG        N/A
N SABINE NF      N/A     68  64  88 MISG        N/A
S SABINE NF      N/A     68  63  83 CALM        N/A
$$

SUPPLEMENTAL OBSERVATIONS ARE A COLLECTION OF AUTOMATED INSTRUMENTS
THAT ARE MAINTAINED BY A VARIETY OF FEDERAL AND STATE AGENCIES.
CERTAIN ELEMENTS...SUCH AS HUMIDITY VALUES AND SUSTAINED WIND
SPEEDS...MAY BE APPROXIMATED.





USA.gov is the U.S. government's official web portal to all federal, state and local government web resources and services.